Clarksburg, WV

9:46 AM EDT on May 21, 2018 (GMT -0400)
Benedum

Weather History for KCKB - April, 2013

Change the Weather History Date:

Tuesday, April 2, 2013

  Actual Average Record
Temperature  
Mean Temperature 34 °F 48 °F  
Max Temperature 43 °F 59 °F 86 °F (1974)
Min Temperature 27 °F 36 °F 22 °F (1964)
Degree Days  
Heating Degree Days 30 17  
Month to date heating degree days 35  
Since 1 July heating degree days 4717  
Cooling Degree Days 0 0  
Month to date cooling degree days 0  
Year to date cooling degree days 1  
Moisture  
Dew Point 11 °F    
Average Humidity 39    
Maximum Humidity 51    
Minimum Humidity 25    
Precipitation  
Precipitation 0.00 in 0.12 in 1.05 in (1957)
Month to date precipitation 0.25  
Year to date precipitation 10.84  
Sea Level Pressure  
Sea Level Pressure 30.14 in    
Wind  
Wind Speed 7 mph (WNW)    
Max Wind Speed 15 mph    
Max Gust Speed 25 mph    
Visibility 10 miles    
Events      
T = Trace of Precipitation, MM = Missing Value Source: NWS Daily Summary

Daily Weather History Graph

Daily Weather History Graph

Search for Another Location

Airport or City:

Astronomy

Apr. 02, 2013 Rise Set
Actual Time 7:03 AM EDT 7:45 PM EDT
Civil Twilight 6:36 AM EDT 8:13 PM EDT
Nautical Twilight 6:04 AM EDT 8:45 PM EDT
Astronomical Twilight 5:31 AM EDT 9:18 PM EDT
Moon 1:47 AM EDT (4/2) 11:54 AM EDT (4/2)
Length of Visible Light 13h 36m
Length of Day
12h 42m
Waning Gibbous, 56% of the Moon is Illuminated
Apr 2
Waning Gibbous
Apr 3
Last Quarter
Apr 10
New
Apr 18
First Quarter
Apr 25
Full

Hourly Weather History & Observations

Time (EDT) Temp. Windchill Dew Point Humidity Pressure Visibility Wind Dir Wind Speed Gust Speed Precip Events Conditions
12:53 AM 34.0 °F 28.8 °F 14.0 °F 44% 30.04 in 10.0 mi WNW 5.8 mph - N/A   Partly Cloudy
1:53 AM 32.0 °F 27.5 °F 14.0 °F 48% 30.05 in 10.0 mi NW 4.6 mph - N/A   Clear
2:53 AM 30.9 °F - 12.9 °F 47% 30.05 in 10.0 mi Calm Calm - N/A   Clear
3:53 AM 30.9 °F 27.5 °F 12.9 °F 47% 30.05 in 10.0 mi WNW 3.5 mph - N/A   Clear
4:53 AM 28.9 °F 21.9 °F 12.9 °F 51% 30.06 in 10.0 mi NW 6.9 mph - N/A   Clear
5:53 AM 28.9 °F 21.1 °F 12.0 °F 49% 30.09 in 10.0 mi WNW 8.1 mph - N/A   Clear
6:53 AM 27.0 °F 21.6 °F 10.0 °F 49% 30.12 in 10.0 mi WSW 4.6 mph - N/A   Clear
7:53 AM 28.0 °F 20.8 °F 10.9 °F 49% 30.16 in 10.0 mi West 6.9 mph - N/A   Clear
8:53 AM 30.9 °F 23.5 °F 10.9 °F 43% 30.18 in 10.0 mi NW 8.1 mph - N/A   Clear
9:53 AM 32.0 °F 23.6 °F 10.9 °F 42% 30.18 in 10.0 mi WNW 10.4 mph 16.1 mph N/A   Clear
10:53 AM 33.1 °F 23.9 °F 10.9 °F 40% 30.20 in 10.0 mi West 12.7 mph - N/A   Clear
11:53 AM 36.0 °F 28.5 °F 12.0 °F 37% 30.20 in 10.0 mi West 10.4 mph 16.1 mph N/A   Partly Cloudy
12:53 PM 37.0 °F 29.8 °F 10.9 °F 34% 30.19 in 10.0 mi West 10.4 mph 20.7 mph N/A   Clear
1:53 PM 39.9 °F 32.9 °F 10.0 °F 29% 30.16 in 10.0 mi West 11.5 mph 19.6 mph N/A   Clear
2:53 PM 42.1 °F 34.5 °F 10.9 °F 28% 30.14 in 10.0 mi West 15.0 mph 21.9 mph N/A   Clear
3:53 PM 41.0 °F 33.9 °F 9.0 °F 27% 30.13 in 10.0 mi West 12.7 mph 19.6 mph N/A   Partly Cloudy
4:53 PM 42.1 °F 36.1 °F 8.1 °F 25% 30.12 in 10.0 mi West 10.4 mph 25.3 mph N/A   Clear
5:53 PM 42.1 °F 35.2 °F 9.0 °F 26% 30.13 in 10.0 mi WNW 12.7 mph - N/A   Partly Cloudy
6:53 PM 39.9 °F 32.1 °F 10.0 °F 29% 30.15 in 10.0 mi WNW 13.8 mph 19.6 mph N/A   Clear
7:53 PM 37.9 °F 32.1 °F 10.0 °F 32% 30.16 in 10.0 mi WNW 8.1 mph - N/A   Clear
8:53 PM 36.0 °F 32.1 °F 10.9 °F 36% 30.17 in 10.0 mi NW 4.6 mph - N/A   Clear
9:53 PM 35.1 °F 32.2 °F 10.9 °F 37% 30.19 in 10.0 mi NW 3.5 mph - N/A   Clear
10:53 PM 34.0 °F - 12.0 °F 40% 30.20 in 10.0 mi Calm Calm - N/A   Clear
11:53 PM 32.0 °F 28.7 °F 12.9 °F 45% 30.21 in 10.0 mi NW 3.5 mph - N/A   Clear